This is the latest recevied weather packets stored in our database for station/object JH7UAX-10. If no packets are shown the sender has not sent any weather packets the latest 10 day(s).
| Time | Temp. | Humidity | Pressure | Rain* | Wind** | Luminosity | Snow |
|---|---|---|---|---|---|---|---|
| 1778051707 | 21.11° C | 50% | 1028.4 hPa | 0 mm | - | - | - |
| 1778051279 | 21.67° C | 49% | 1028.5 hPa | 0 mm | - | - | - |
| 1778050807 | 21.67° C | 49% | 1028.5 hPa | 0 mm | - | - | - |
| 1778050379 | 21.67° C | 49% | 1028.5 hPa | 0 mm | - | - | - |
| 1778049906 | 21.67° C | 47% | 1028.4 hPa | 0 mm | - | - | - |
| 1778049478 | 21.67° C | 47% | 1028.4 hPa | 0 mm | - | - | - |
| 1778049006 | 21.67° C | 46% | 1028.3 hPa | 0 mm | - | - | - |
| 1778048578 | 21.67° C | 46% | 1028.4 hPa | 0 mm | - | - | - |
| 1778048106 | 21.67° C | 47% | 1028.5 hPa | 0 mm | - | - | - |
| 1778047679 | 21.67° C | 46% | 1028.4 hPa | 0 mm | - | - | - |
| 1778047206 | 21.67° C | 47% | 1028.4 hPa | 0 mm | - | - | - |
| 1778046779 | 21.67° C | 46% | 1028.5 hPa | 0 mm | - | - | - |
| 1778046306 | 22.22° C | 44% | 1028.5 hPa | 0 mm | - | - | - |
| 1778045878 | 22.22° C | 48% | 1028.5 hPa | 0 mm | - | - | - |
| 1778045406 | 22.22° C | 46% | 1028.6 hPa | 0 mm | - | - | - |
| 1778044980 | 21.67° C | 48% | 1028.5 hPa | 0 mm | - | - | - |
| 1778044506 | 22.22° C | 46% | 1028.7 hPa | 0 mm | - | - | - |
| 1778044080 | 22.22° C | 45% | 1028.8 hPa | 0 mm | - | - | - |
| 1778043605 | 22.22° C | 45% | 1028.9 hPa | 0 mm | - | - | - |
| 1778043179 | 22.22° C | 45% | 1028.9 hPa | 0 mm | - | - | - |
| 1778042705 | 22.22° C | 44% | 1028.9 hPa | 0 mm | - | - | - |
| 1778042279 | 22.22° C | 45% | 1028.8 hPa | 0 mm | - | - | - |
| 1778041805 | 21.67° C | 47% | 1029 hPa | 0 mm | - | - | - |
| 1778041379 | 21.67° C | 46% | 1029.1 hPa | 0 mm | - | - | - |
| 1778040906 | 21.67° C | 46% | 1029.2 hPa | 0 mm | - | - | - |
* Rain latest hour (hover to see other rain measurements)
** Current wind speed in m/s (hover to see current wind gust speed)